CYBU

Nipawin Airport

Nipawin, Saskatchewan, Canada
Issued Wind Visibility Ceiling Temperature Dew Point Humidity Barometer
Sep-23
01:00 UTC
360°
7 KTS
9 miles Overcast
3,100' AGL
C
45° F
C
43° F
93% 30.07" Hg
1020.2 hPa
VFR
Sep-23
00:59 UTC
360°
7 KTS
9 miles Overcast
3,100' AGL
C
45° F
C
43° F
93% 30.07" Hg
1020.3 hPa
VFR
Sep-23
00:53 UTC
360°
7 KTS
9 miles Broken
2,400' AGL
C
46° F
C
41° F
82% 30.07" Hg
1020.2 hPa
MVFR
Sep-23
00:00 UTC
090°
4 KTS
9 miles Overcast
3,700' AGL
C
48° F
C
39° F
71% 30.07" Hg
1020 hPa
VFR
Sep-22
23:00 UTC
360°
6 KTS
9 miles Overcast
2,900' AGL
C
48° F
C
39° F
71% 30.06" Hg
1019.5 hPa
MVFR
Sep-22
22:00 UTC
360°
7 KTS
9 miles Overcast
3,300' AGL
10° C
50° F
C
37° F
62% 30.06" Hg
1019.4 hPa
VFR
Sep-22
21:00 UTC
010°
4 KTS
9 miles Overcast
3,100' AGL
10° C
50° F
C
37° F
62% 30.07" Hg
1019.8 hPa
VFR
Sep-22
20:00 UTC
350°
3 KTS
9 miles Overcast
3,100' AGL
C
48° F
C
37° F
66% 30.06" Hg
1019.5 hPa
VFR
Sep-22
19:00 UTC
300°
9 KTS
9 miles Overcast
3,100' AGL
10° C
50° F
C
37° F
62% 30.06" Hg
1019.5 hPa
VFR
Sep-22
18:00 UTC
310°
9 KTS
9 miles Broken
2,700' AGL
C
48° F
C
37° F
66% 30.06" Hg
1019.5 hPa
MVFR
Sep-22
17:50 UTC
Varies @3 KTS 9 miles Broken
2,700' AGL
C
48° F
C
37° F
66% 30.06" Hg
1019.4 hPa
MVFR
Sep-22
17:00 UTC
010°
7 KTS
9 miles Broken
2,200' AGL
C
48° F
C
39° F
71% 30.07" Hg
1019.7 hPa
MVFR
Sep-22
16:56 UTC
010°
7 KTS
9 miles Broken
2,200' AGL
C
48° F
C
37° F
66% 30.07" Hg
1019.7 hPa
MVFR
Sep-22
16:51 UTC
010°
9 KTS
9 miles   C
46° F
C
37° F
71% 30.07" Hg
1019.8 hPa
VFR
Sep-22
16:35 UTC
330°
6 KTS
9 miles Broken
2,000' AGL
C
46° F
C
39° F
76% 30.07" Hg
1019.9 hPa
MVFR
Sep-22
16:06 UTC
330°
8 KTS
9 miles   C
43° F
C
37° F
81% 30.07" Hg
1019.8 hPa
VFR
Sep-22
15:58 UTC
320°
8 KTS
9 miles Broken
1,600' AGL
C
45° F
C
39° F
81% 30.07" Hg
1019.8 hPa
MVFR
Sep-22
15:00 UTC
320°
7 KTS
9 miles   C
43° F
C
39° F
87% 30.06" Hg
1019.4 hPa
VFR
Sep-22
14:34 UTC
310°
6 KTS
9 miles   C
41° F
C
39° F
93% 30.05" Hg
1019.4 hPa
VFR
Sep-22
14:00 UTC
290°
6 KTS
9 miles   C
39° F
C
39° F
100% 30.05" Hg
1019.4 hPa
VFR
Sep-22
13:00 UTC
300°
5 KTS
9 miles   C
37° F
C
32° F
81% 30.03" Hg
1018.8 hPa
VFR
Sep-22
12:00 UTC
290°
3 KTS
9 miles   C
37° F
C
32° F
81% 30.02" Hg
1018.2 hPa
VFR
Sep-22
11:49 UTC
280°
5 KTS
9 miles   C
37° F
C
32° F
81% 30.02" Hg
1018.1 hPa
VFR
Sep-22
11:35 UTC
300°
3 KTS
9 miles   C
37° F
C
32° F
81% 30.02" Hg
1018.1 hPa
VFR
Sep-22
11:00 UTC
290°
5 KTS
9 miles   C
39° F
C
39° F
100% 30.01" Hg
1017.6 hPa
VFR
Sep-22
10:00 UTC
300°
7 KTS
9 miles   C
39° F
C
39° F
100% 29.97" Hg
1016.4 hPa
VFR
Sep-22
09:06 UTC
250°
4 KTS
9 miles   C
37° F
C
37° F
100% 29.96" Hg
1016 hPa
VFR
Sep-22
08:54 UTC
230°
2 KTS
9 miles   C
39° F
C
39° F
100% 29.95" Hg
1015.7 hPa
VFR
Sep-22
08:37 UTC
300°
4 KTS
9 miles Broken
1,400' AGL
C
39° F
C
39° F
100% 29.95" Hg
1015.4 hPa
MVFR
Sep-22
08:00 UTC
310°
6 KTS
9 miles   C
39° F
C
39° F
100% 29.92" Hg
1014.6 hPa
VFR
Sep-22
07:00 UTC
300°
7 KTS
9 miles   C
43° F
C
41° F
93% 29.92" Hg
1014.4 hPa
VFR
Sep-22
06:00 UTC
310°
8 KTS
9 miles Broken
6,000' AGL
C
45° F
C
41° F
87% 29.89" Hg
1013.6 hPa
VFR
Sep-22
05:00 UTC
260°
8 KTS
9 miles Overcast
5,000' AGL
C
46° F
C
43° F
87% 29.89" Hg
1013.6 hPa
VFR
Sep-22
04:00 UTC
230°
6 KTS
9 miles Overcast
4,800' AGL
C
46° F
C
43° F
87% 29.86" Hg
1012.7 hPa
VFR
Sep-22
03:00 UTC
220°
5 KTS
9 miles Overcast
4,400' AGL
C
48° F
C
41° F
76% 29.84" Hg
1012 hPa
VFR